| time (UTC) | temp C | wind direction | speed KPH | gust KPH | rain 1hr cm | rain 24hr cm | rain mn cm | humidity % | barometer mb |
| 20260505003030 | 5 | 0 | 0.0 | 3.2 | 0.36 | 0.36 | 0.36 | 80 | 1014.8 |
| 20260505001536 | 9 | 0 | 0.0 | 6.4 | 0.05 | 0.05 | 0.05 | 68 | 1014.8 |
| 20260505000033 | 10 | 0 | 0.0 | 3.2 | 0.00 | 0.00 | 0.00 | 58 | 1014.1 |
| 20260504234529 | 10 | 0 | 0.0 | 17.7 | 0.00 | 0.00 | 0.00 | 58 | 1013.6 |
| 20260504233028 | 10 | 81 | 0.0 | 16.1 | 0.00 | 0.00 | 0.00 | 55 | 1013.3 |
| 20260504231535 | 10 | 0 | 0.0 | 9.7 | 0.00 | 0.00 | 0.00 | 55 | 1013.3 |
| 20260504230030 | 10 | 0 | 0.0 | 12.9 | 0.00 | 0.00 | 0.00 | 57 | 1013.3 |
| 20260504224535 | 10 | 0 | 0.0 | 14.5 | 0.00 | 0.00 | 0.00 | 56 | 1013.3 |
| 20260504223029 | 10 | 0 | 0.0 | 16.1 | 0.00 | 0.00 | 0.00 | 56 | 1013.1 |
| 20260504221538 | 10 | 0 | 0.0 | 8.0 | 0.00 | 0.00 | 0.00 | 54 | 1013.4 |
| 20260504220032 | 10 | 0 | 1.6 | 16.1 | 0.00 | 0.00 | 0.00 | 52 | 1012.8 |
| 20260504214531 | 11 | 0 | 0.0 | 17.7 | 0.00 | 0.00 | 0.00 | 46 | 1012.8 |
| 20260504213039 | 12 | 0 | 0.0 | 3.2 | 0.00 | 0.00 | 0.00 | 42 | 1012.3 |
| 20260504211534 | 12 | 0 | 0.0 | 9.7 | 0.00 | 0.00 | 0.00 | 45 | 1012.2 |
| 20260504210029 | 11 | 0 | 0.0 | 0.0 | 0.00 | 0.00 | 0.00 | 46 | 1012.8 |
| 20260504204534 | 11 | 0 | 0.0 | 9.7 | 0.00 | 0.00 | 0.00 | 46 | 1013.0 |
| 20260504203034 | 12 | 0 | 0.0 | 3.2 | 0.00 | 0.00 | 0.00 | 44 | 1013.3 |
| 20260504201530 | 12 | 0 | 0.0 | 0.0 | 0.00 | 0.00 | 0.00 | 43 | 1013.4 |
| 20260504200032 | 12 | 0 | 0.0 | 6.4 | 0.00 | 0.00 | 0.00 | 41 | 1013.5 |
| 20260504194530 | 13 | 0 | 0.0 | 24.1 | 0.00 | 0.00 | 0.00 | 37 | 1013.4 |
| 20260504193030 | 13 | 0 | 1.6 | 25.7 | 0.00 | 0.00 | 0.00 | 40 | 1013.2 |
| 20260504191554 | 13 | 0 | 0.0 | 12.9 | 0.00 | 0.00 | 0.00 | 40 | 1013.3 |
| 20260504190034 | 13 | 0 | 0.0 | 11.3 | 0.00 | 0.00 | 0.00 | 42 | 1013.4 |
| 20260504184541 | 13 | 0 | 0.0 | 6.4 | 0.00 | 0.00 | 0.00 | 38 | 1013.7 |
| 20260504183031 | 13 | 0 | 0.0 | 0.0 | 0.00 | 0.00 | 0.00 | 37 | 1013.7 |
| 20260504181528 | 12 | 0 | 0.0 | 1.6 | 0.00 | 0.00 | 0.00 | 39 | 1013.9 |
| 20260504180034 | 12 | 0 | 0.0 | 22.5 | 0.00 | 0.00 | 0.00 | 39 | 1014.0 |
| 20260504174530 | 12 | 281 | 4.8 | 20.9 | 0.00 | 0.00 | 0.00 | 38 | 1013.9 |
| 20260504173029 | 12 | 0 | 0.0 | 22.5 | 0.00 | 0.00 | 0.00 | 39 | 1013.9 |
| 20260504171529 | 12 | 0 | 3.2 | 30.6 | 0.00 | 0.00 | 0.00 | 39 | 1014.3 |
| 20260504081545 | 0 | 0 | 0.0 | 11.3 | 0.00 | 0.00 | 0.00 | 64 | 1015.4 |
| 20260504044535 | 3 | 0 | 0.0 | 0.0 | 0.00 | 0.00 | 0.00 | 57 | 1017.0 |
| 20260504043036 | 3 | 0 | 0.0 | 1.6 | 0.00 | 0.00 | 0.00 | 56 | 1017.1 |
| 20260504041531 | 3 | 0 | 0.0 | 0.0 | 0.00 | 0.00 | 0.00 | 55 | 1017.2 |
| 20260504040030 | 4 | 0 | 0.0 | 4.8 | 0.00 | 0.00 | 0.00 | 54 | 1017.2 |
| 20260504034530 | 5 | 0 | 0.0 | 0.0 | 0.00 | 0.00 | 0.00 | 52 | 1017.3 |
| 20260504033035 | 6 | 0 | 0.0 | 0.0 | 0.00 | 0.00 | 0.00 | 50 | 1017.2 |
| 20260504031531 | 6 | 0 | 0.0 | 0.0 | 0.00 | 0.00 | 0.00 | 48 | 1017.1 |
| 20260504030031 | 7 | 0 | 0.0 | 0.0 | 0.00 | 0.00 | 0.00 | 47 | 1017.1 |
| 20260504024540 | 8 | 0 | 0.0 | 0.0 | 0.00 | 0.00 | 0.00 | 45 | 1016.9 |
| 20260504023028 | 9 | 0 | 0.0 | 0.0 | 0.00 | 0.00 | 0.00 | 42 | 1016.6 |
| 20260504021532 | 10 | 0 | 0.0 | 0.0 | 0.00 | 0.00 | 0.00 | 41 | 1016.6 |
| 20260504020030 | 11 | 0 | 0.0 | 0.0 | 0.00 | 0.00 | 0.00 | 41 | 1016.4 |
| 20260504014530 | 12 | 0 | 0.0 | 0.0 | 0.00 | 0.00 | 0.00 | 36 | 1016.3 |
| 20260504013036 | 12 | 0 | 0.0 | 0.0 | 0.00 | 0.00 | 0.00 | 36 | 1016.2 |
| 20260504011530 | 13 | 0 | 0.0 | 0.0 | 0.00 | 0.00 | 0.00 | 34 | 1016.3 |
| 20260504010030 | 13 | 0 | 0.0 | 12.9 | 0.00 | 0.00 | 0.00 | 32 | 1016.3 |